Torna al catalogo

INTERCOSMOS 24

AttivoScienzaPO
NORAD 20261·PAYLOAD·🇷🇺 Russia

Lanciato Sep 28, 1989 da Plesetsk Cosmodrome

Loading…

Prossimi Passaggi (prossime 24 ore)

TLE

AggiornatoSource: Space-Track

Epoca: Sep 14, 2026, 03:02 UTC

1 20261U 89080A   26257.12671854  .00000714  00000-0  20900-3 0  9998
2 20261  82.6114 341.7525 1186658 215.3858 136.2627 12.59729490690526

Traccia INTERCOSMOS 24 in tempo reale con AllMySat

Download on the App Store